GFSGBSN_500_spd_021.txt.gz
Wind_Speed
13 11 11 13 15 17 18 18 17 17 16 17 19 19 21 21 19 19 21 20 20 19 18 23 26 25 21 19 21 11 13 14 16 18 21 23 21 16 18 22 18 10 7 6 11 11 11
14 14 15 15 17 17 17 18 19 19 19 17 18 17 19 21 24 22 20 19 21 21 20 19 21 27 24 27 21 20 15 12 17 21 24 26 22 23 21 18 19 15 8 9 12 15 14
16 16 16 17 18 18 17 18 18 19 19 18 19 19 21 20 22 24 22 19 18 21 21 21 21 20 28 32 26 27 20 16 17 21 27 29 28 25 20 22 20 16 14 14 14 17 15
18 19 18 16 15 15 17 19 21 22 21 20 21 22 25 23 21 21 23 24 22 19 20 22 22 22 23 31 31 31 25 21 21 25 30 35 32 30 27 23 23 19 15 16 17 18 17
22 20 19 20 19 20 20 19 19 20 21 22 22 22 24 24 23 24 25 24 24 23 22 21 22 22 24 23 32 33 32 28 26 31 32 34 33 34 33 29 25 19 17 20 18 18 17
27 28 27 25 25 25 26 26 25 25 24 23 24 24 26 26 26 27 27 25 24 23 25 24 23 24 25 23 33 35 37 34 32 33 34 34 35 30 31 34 28 17 17 19 18 18 17
31 31 31 33 32 32 31 29 30 30 30 29 28 28 28 29 26 28 28 28 28 25 25 26 26 24 28 24 27 35 41 39 37 37 34 32 31 25 21 21 24 20 19 19 21 21 21
37 38 39 38 38 37 36 36 36 34 34 34 34 32 32 31 30 29 28 30 30 27 25 27 28 26 30 29 26 31 40 44 42 40 37 37 30 30 31 28 27 23 26 23 23 21 20
35 37 39 39 40 41 41 42 41 41 40 38 38 36 35 35 33 33 32 29 29 28 27 25 30 31 28 31 26 31 37 45 45 44 42 40 33 37 36 29 28 28 24 29 23 23 22
31 32 34 37 38 39 39 38 38 39 41 42 41 39 40 40 37 36 37 34 33 30 29 24 30 31 33 30 26 33 33 42 48 47 46 45 40 41 39 36 28 24 22 30 31 29 20
39 39 39 39 40 41 42 42 42 42 42 42 43 44 40 40 41 39 37 38 38 34 34 28 30 31 29 32 27 31 35 40 47 50 51 49 43 44 45 38 30 25 25 26 31 30 30
45 45 46 46 47 48 48 49 47 48 48 48 46 46 44 44 44 42 40 39 40 39 36 34 28 30 30 30 30 29 38 38 45 48 53 53 49 51 46 42 40 34 29 28 33 38 42
53 53 53 53 53 54 54 55 54 53 53 52 53 53 51 47 47 46 44 41 42 43 37 37 33 33 33 33 34 29 33 40 42 53 57 57 55 54 50 53 50 44 41 40 38 43 45
56 57 57 60 60 58 58 58 57 55 53 53 54 55 55 52 49 48 48 47 46 43 40 41 40 35 34 33 37 33 32 39 41 52 55 57 60 56 60 57 54 48 45 47 45 41 35
67 67 68 69 70 67 65 62 60 61 60 58 57 57 57 57 52 51 54 53 47 42 43 44 37 36 36 36 36 35 31 36 40 46 58 59 61 61 64 59 56 56 54 45 44 43 39
75 74 74 74 73 69 66 66 66 66 65 64 60 61 61 59 57 53 55 54 50 44 44 46 41 40 39 40 37 36 31 33 40 42 52 58 58 64 65 65 62 60 52 53 52 53 52
77 78 78 77 76 75 75 73 70 70 70 69 67 63 64 63 60 57 59 57 50 48 48 51 47 41 42 43 41 38 37 34 38 40 48 54 59 60 74 73 69 67 66 63 58 55 52
87 85 85 85 83 81 78 74 70 69 66 67 65 64 62 60 58 58 54 54 53 51 52 54 54 45 45 47 47 44 41 38 38 43 46 52 54 60 65 77 74 71 68 63 61 59 58
98 96 93 91 89 85 77 70 68 67 65 60 59 60 61 61 60 59 58 57 55 53 54 55 55 50 45 50 51 49 43 41 42 44 46 46 52 55 60 65 78 79 75 70 70 65 64
97 97 96 90 82 76 70 70 62 59 58 57 56 54 54 56 58 57 57 57 56 55 55 56 55 52 49 52 54 52 46 42 42 43 43 46 51 54 59 64 63 73 78 78 75 76 70
92 89 83 77 71 70 61 53 49 48 50 53 54 55 56 55 54 55 56 55 56 56 57 57 55 53 50 51 52 54 52 46 45 40 42 48 52 52 55 56 59 61 66 75 79 74 74
75 67 61 59 59 58 56 53 55 55 57 56 55 54 50 50 51 51 52 54 57 59 58 59 56 53 52 52 53 55 55 50 44 41 38 44 47 48 51 51 54 59 62 63 71 71 72
53 52 53 53 52 51 52 51 52 51 49 48 51 55 54 49 47 49 51 53 55 58 59 57 55 54 51 51 52 53 55 54 52 48 44 46 46 46 49 41 44 56 55 58 61 65 66
49 48 46 43 42 41 42 44 46 46 44 44 43 43 46 44 45 44 48 52 53 55 55 53 51 51 49 49 50 51 52 52 51 51 50 51 47 45 45 43 42 43 51 55 58 59 62
46 43 41 39 36 35 35 35 35 37 42 44 43 43 43 42 41 45 43 46 49 54 54 49 48 49 49 45 47 48 50 54 49 53 55 55 51 48 47 42 43 39 46 50 57 60 60
41 38 38 36 33 32 32 28 28 31 32 31 35 40 41 40 39 38 41 44 45 45 49 46 45 47 47 45 45 47 50 52 51 52 60 58 56 54 50 42 44 38 41 40 48 57 55
37 37 37 33 32 30 28 27 26 26 24 26 29 31 35 39 35 36 33 36 39 42 41 42 41 47 43 43 44 45 46 45 48 48 54 59 62 58 54 47 41 40 35 29 38 48 50
34 35 34 30 27 26 23 23 22 21 20 22 20 22 24 30 28 33 31 28 27 32 41 37 40 42 44 42 42 42 43 46 46 47 45 47 56 60 56 45 35 37 36 31 31 38 43
32 31 28 25 21 18 16 15 13 14 15 16 16 17 19 22 23 28 27 27 28 37 40 39 41 40 43 42 41 40 42 45 46 42 41 43 47 46 57 49 46 38 34 30 30 30 35

GFSGBSN_500_spd_024.txt.gz
Wind_Speed
11 11 10 11 12 13 13 13 14 14 14 14 13 13 14 14 15 16 15 16 16 16 17 15 15 18 22 21 22 13 12 12 13 18 19 22 20 18 15 19 22 16 11 7 9 10 10
13 13 13 14 14 13 12 12 14 15 16 16 14 14 13 15 17 17 16 13 15 17 17 18 16 15 19 27 22 20 17 14 12 18 22 24 20 20 21 24 24 16 11 7 9 12 12
14 15 16 17 16 14 12 11 12 13 15 16 16 16 17 17 18 17 15 15 17 17 18 18 18 15 19 20 26 25 22 18 15 19 22 28 27 23 21 24 25 19 12 9 12 14 14
18 18 16 15 16 18 17 17 17 16 15 15 14 15 17 17 18 19 18 18 17 17 17 18 18 18 20 18 20 26 28 24 21 21 26 31 31 27 27 26 22 20 15 11 14 17 14
23 22 23 23 23 22 21 22 22 22 22 21 19 19 19 17 18 19 20 20 20 19 18 18 19 19 20 21 18 25 30 30 27 25 28 31 34 31 29 25 24 20 14 14 17 19 18
26 25 26 27 28 29 28 28 27 25 25 26 24 25 26 23 23 23 22 21 21 20 20 20 19 20 21 19 20 20 28 33 32 30 31 33 36 30 31 31 27 19 15 17 19 20 18
27 28 30 32 34 35 34 33 33 33 33 32 30 30 31 28 28 27 26 25 23 21 21 23 23 23 21 20 20 21 22 32 36 36 34 34 33 29 26 29 24 21 18 18 20 22 21
30 30 32 33 34 36 37 37 37 37 37 36 34 33 35 34 34 32 30 29 27 26 22 24 24 21 25 22 19 20 23 27 36 38 39 38 33 33 33 33 32 28 23 22 23 25 24
30 32 32 32 32 33 33 33 35 37 36 37 39 39 37 36 36 36 35 33 31 30 29 27 26 25 25 24 23 22 22 26 31 41 42 38 35 39 39 35 35 33 30 26 24 27 27
36 36 35 35 35 36 35 34 35 37 39 39 39 39 38 40 40 38 35 37 37 35 34 30 33 31 28 27 25 26 24 25 30 36 42 44 44 45 39 37 34 34 29 31 28 31 29
41 41 40 42 44 45 43 41 39 38 38 40 42 45 44 43 44 43 40 39 39 37 38 35 34 32 31 30 28 26 26 27 27 31 44 47 45 42 45 40 37 32 36 37 30 32 28
48 49 50 50 48 46 48 48 47 42 42 44 44 45 47 48 48 47 47 45 42 42 46 39 34 35 32 30 30 31 28 26 28 34 37 45 49 50 47 46 41 36 39 42 35 33 38
53 55 55 54 54 54 55 53 54 54 53 52 51 49 48 51 52 51 51 50 48 48 44 42 37 37 37 36 36 35 33 33 28 29 36 42 51 51 52 52 50 46 42 39 38 39 37
61 63 64 65 64 62 62 61 59 59 60 58 53 50 50 52 53 54 54 55 54 52 44 46 44 40 39 38 37 37 37 36 34 31 36 39 49 53 55 56 52 50 45 41 40 35 34
64 64 68 71 72 71 71 71 69 64 62 58 56 55 53 56 58 57 58 60 57 53 52 47 46 47 46 44 41 41 41 40 37 34 35 39 43 47 57 58 57 54 58 45 33 33 34
75 75 77 76 76 76 76 74 72 70 66 64 60 60 60 61 62 62 63 60 60 57 53 51 51 51 49 47 46 46 45 43 40 37 36 38 42 47 54 59 59 61 51 54 46 42 40
84 86 86 86 86 86 85 83 80 77 75 71 70 65 63 64 67 69 67 64 63 64 58 56 54 54 52 51 52 47 45 46 41 39 36 36 40 41 53 60 61 65 67 60 46 45 40
91 91 92 93 93 92 91 89 87 86 82 77 74 70 65 65 68 71 69 69 70 68 63 62 58 57 56 51 55 48 48 46 47 43 41 38 35 43 48 54 59 64 68 67 61 54 47
95 96 97 95 93 88 84 84 80 76 72 69 66 66 64 62 65 67 68 70 71 70 66 62 60 60 58 54 53 50 51 51 49 43 43 37 41 35 42 43 53 63 62 68 60 60 53
97 98 94 95 90 86 78 71 67 63 59 57 58 61 63 64 66 66 67 70 68 69 64 63 61 62 62 57 53 53 52 52 51 47 45 42 41 41 39 44 45 62 67 64 55 58 55
90 90 89 81 67 62 57 55 56 56 54 55 57 61 61 59 58 62 63 66 67 68 66 63 63 62 61 57 55 52 54 53 51 48 44 45 44 44 42 35 34 39 49 69 73 69 61
82 76 68 61 52 49 48 46 46 48 48 50 57 53 54 53 52 56 57 60 63 64 67 66 62 59 58 57 56 51 55 57 52 49 48 47 46 44 43 41 42 38 41 44 54 76 78
65 54 49 46 46 44 41 40 39 37 37 41 44 50 51 50 50 47 52 53 57 62 62 59 65 66 64 59 61 59 61 62 56 54 53 49 48 43 44 36 37 41 42 42 49 60 64
51 48 45 43 42 39 38 36 36 33 31 32 34 37 39 40 48 50 50 55 54 51 54 52 58 60 61 59 55 52 54 55 55 59 56 54 48 45 42 29 38 39 34 40 44 47 57
47 46 42 39 37 36 35 32 31 31 29 28 28 30 33 33 35 35 36 42 51 51 51 43 50 52 56 53 52 50 51 52 53 58 58 56 51 46 40 37 30 31 32 36 37 42 48
41 39 38 33 32 31 31 29 27 26 26 25 23 25 26 27 28 33 33 37 38 38 43 46 43 50 49 47 48 48 49 49 47 53 58 58 54 51 38 38 34 34 37 29 29 37 35
31 30 30 29 29 29 26 25 24 22 21 21 19 20 21 21 20 24 27 31 34 39 33 34 43 44 45 45 45 46 38 32 37 52 60 59 57 54 50 39 39 47 41 36 32 29 32
22 20 24 25 24 23 20 19 19 18 19 18 17 17 17 17 18 22 24 26 26 28 31 31 35 40 46 40 42 40 37 35 33 40 50 53 54 52 44 47 42 48 42 38 34 30 30
15 19 20 20 18 17 16 15 14 14 12 12 13 14 15 16 16 20 19 24 25 25 22 31 30 41 45 48 39 42 39 36 44 30 47 49 46 43 51 47 53 49 47 43 40 32 29

GFSGBSN_500_spd_030.txt.gz
Wind_Speed
11 11 11 12 14 15 15 14 13 11 11 12 12 11 10 10 11 11 12 11 10 10 11 10 9 8 9 8 15 14 11 12 15 19 20 21 18 19 17 16 14 19 7 7 13 7 8
12 13 13 14 14 15 16 17 15 14 13 13 13 12 12 11 10 10 10 11 11 12 12 11 10 10 8 7 8 17 17 16 15 18 26 24 21 21 20 17 16 9 17 6 18 9 7
14 14 16 16 17 17 17 17 16 17 18 18 18 17 15 13 13 12 12 10 10 11 12 12 12 11 8 7 7 9 18 20 19 17 23 30 28 29 20 18 19 14 9 13 22 10 12
18 18 18 19 18 19 20 20 20 20 20 23 24 23 21 20 20 18 17 15 13 13 14 14 13 12 11 8 5 7 8 21 22 22 21 27 37 34 30 22 24 19 15 19 13 9 15
14 13 14 14 14 15 16 18 20 21 22 23 25 25 25 23 23 21 21 21 20 21 20 18 17 13 13 11 8 7 7 10 25 25 24 27 33 34 32 30 26 19 19 17 25 12 15
13 13 15 16 18 19 20 20 20 21 22 23 25 27 27 25 25 25 24 24 23 23 23 24 20 18 14 14 8 6 7 9 14 28 28 27 30 31 33 33 29 16 20 18 23 21 15
16 17 19 21 23 24 24 24 24 22 22 23 24 28 30 29 28 28 27 26 25 26 25 27 23 22 18 17 12 11 8 10 10 18 31 28 32 27 31 28 24 18 17 10 30 27 14
24 26 26 27 27 27 27 27 27 27 27 26 25 26 31 32 31 32 32 30 27 28 23 27 27 22 24 20 16 16 14 12 11 12 21 32 33 25 27 31 28 24 24 22 29 32 15
31 31 32 32 33 34 35 34 34 34 35 35 37 34 33 34 32 32 34 32 32 30 29 24 28 24 27 27 22 20 19 17 15 15 16 21 23 28 31 31 31 30 31 23 29 25 16
34 35 37 37 36 36 38 39 39 39 38 39 39 39 33 39 39 37 36 34 37 36 34 26 33 30 27 27 24 27 25 24 22 17 18 17 24 31 35 34 30 30 31 25 20 27 26
37 38 39 41 42 44 44 43 45 46 45 44 46 46 44 40 41 41 42 39 39 38 42 37 34 28 30 33 32 27 29 29 26 22 25 16 22 28 36 34 31 29 33 26 24 23 25
43 45 46 47 47 49 49 48 47 48 50 51 50 49 48 47 45 48 47 45 46 45 46 39 41 36 33 30 32 35 33 32 29 32 29 23 22 26 29 33 35 30 31 33 30 27 35
49 51 53 55 56 56 56 56 56 56 55 54 54 56 56 55 55 52 51 51 51 52 47 45 44 41 38 38 37 39 35 35 35 34 34 25 26 25 30 35 36 37 34 35 37 39 38
55 57 59 60 60 60 61 62 63 62 61 60 59 59 58 57 56 57 55 55 59 54 52 50 46 50 45 43 40 38 42 42 41 38 36 33 33 30 29 34 36 42 40 44 40 39 35
61 63 64 64 65 67 68 67 69 72 72 70 68 66 64 61 59 58 57 61 59 57 55 56 52 54 55 51 47 45 46 44 42 40 40 37 36 29 31 31 41 39 47 41 38 33 34
67 69 71 72 73 74 74 75 76 77 77 77 74 72 70 66 64 57 60 63 62 57 57 58 59 52 51 41 48 40 48 48 45 44 40 39 34 32 34 34 38 43 35 44 48 46 46
74 77 80 81 83 84 85 86 86 86 87 87 85 81 65 71 64 63 62 56 55 58 63 67 66 65 63 42 39 38 43 41 46 42 44 42 42 34 31 45 41 40 46 47 40 50 49
82 85 87 90 92 93 93 93 94 93 93 93 90 86 69 69 65 62 63 58 60 58 68 73 74 69 71 65 46 43 44 42 31 35 44 46 46 48 41 34 37 40 41 46 54 50 51
90 93 96 97 97 97 96 95 94 92 89 86 82 78 57 60 72 63 59 60 65 68 73 77 77 76 70 68 68 60 50 41 40 39 41 40 50 49 50 43 36 43 42 39 53 49 48
97 100 101 101 98 94 89 83 78 72 64 62 59 55 46 49 56 61 62 63 72 77 79 76 76 78 79 77 69 70 63 53 39 42 43 40 45 55 59 52 38 39 43 42 40 50 57
100 101 98 92 85 78 69 64 57 50 46 46 44 42 41 44 45 38 44 59 69 77 78 77 81 83 84 84 79 74 69 59 48 47 60 56 60 53 48 42 33 38 37 41 45 50 51
98 92 85 82 76 62 53 50 46 45 40 38 34 38 36 36 37 42 42 42 46 55 63 68 69 77 86 86 75 84 78 72 58 50 53 60 64 57 53 39 44 39 39 38 43 44 47
79 71 61 54 48 37 31 29 28 29 27 25 26 28 31 30 31 33 39 50 53 43 49 58 66 67 77 83 89 90 87 82 78 62 48 51 59 62 60 50 37 46 49 38 38 39 40
58 49 44 38 29 22 20 19 20 20 22 23 24 25 27 23 25 24 27 39 56 56 43 51 58 62 60 69 80 85 82 84 84 74 62 51 50 54 58 47 48 57 43 40 37 35 38
48 44 39 34 29 24 19 16 15 17 20 21 20 22 23 19 23 21 20 27 27 31 55 41 42 55 56 54 61 73 73 81 81 70 57 47 53 46 51 46 50 48 39 35 36 39 35
44 41 36 30 25 19 15 13 15 16 17 20 21 21 23 19 16 20 20 22 32 20 22 42 43 45 58 42 47 53 72 66 72 57 45 44 40 37 43 42 49 40 40 28 32 43 44
41 38 34 30 25 20 17 14 14 16 19 19 21 21 22 22 15 22 21 20 29 30 20 16 30 35 42 44 41 39 59 60 58 50 48 50 44 49 42 49 45 36 34 35 42 39 38
37 34 30 27 24 21 17 15 14 15 17 19 19 20 20 22 17 19 23 21 23 25 27 11 17 23 34 51 51 36 49 49 57 50 56 57 55 42 45 39 37 44 46 50 43 47 43
33 31 28 25 22 20 17 15 13 12 13 13 15 14 15 15 13 21 16 14 18 25 28 29 21 22 28 48 51 36 58 47 46 58 47 46 55 49 45 43 40 38 60 48 45 50 45

GFSGBSN_500_spd_033.txt.gz
Wind_Speed
9 10 11 11 12 13 14 14 15 14 12 11 12 12 12 12 11 11 11 10 10 10 9 8 7 6 5 5 9 16 13 12 11 11 12 14 15 19 21 19 12 9 11 8 9 11 9
14 14 14 14 15 15 14 14 14 13 14 15 15 14 13 14 13 12 12 12 10 9 8 8 8 8 5 4 6 13 18 16 14 13 17 16 17 19 21 19 13 12 3 10 5 5 11
18 17 16 16 17 17 18 17 16 16 15 15 17 18 18 17 15 14 15 15 14 12 11 10 10 9 7 5 4 11 13 20 18 16 18 19 24 24 23 22 15 14 10 8 4 17 19
18 18 18 16 14 14 14 15 16 18 19 19 19 20 19 17 17 18 17 16 15 16 15 16 13 12 13 7 5 5 10 17 22 20 19 24 27 24 26 19 19 16 15 11 17 16 21
14 14 13 13 14 15 15 16 16 16 16 18 20 21 21 20 21 20 20 19 18 18 19 19 17 15 16 11 8 6 6 13 23 25 24 24 28 30 30 29 24 21 16 14 15 27 21
15 14 15 16 18 19 20 20 20 21 21 21 22 23 24 24 23 23 23 23 21 21 21 22 16 17 16 13 11 9 7 7 14 26 29 27 27 32 30 31 26 23 20 17 17 14 25
21 22 22 22 23 23 23 23 23 23 23 22 22 23 24 23 23 25 28 26 24 25 21 23 17 17 16 17 15 14 10 10 12 17 26 30 30 24 25 24 23 24 26 19 17 28 27
27 27 27 28 29 30 30 30 29 29 29 29 29 28 28 29 26 29 29 30 30 31 26 26 24 14 21 19 18 18 16 13 11 12 18 27 25 25 25 26 27 27 25 17 24 35 29
30 31 33 34 33 34 35 37 37 35 35 35 36 35 33 36 35 32 33 32 32 33 29 24 30 24 24 21 16 19 22 19 15 14 14 16 16 28 30 30 28 29 25 23 29 32 34
35 35 35 35 36 37 38 40 41 42 42 41 40 40 39 37 41 37 39 32 39 37 38 24 33 30 27 27 23 22 21 24 25 18 19 16 18 25 32 33 29 28 23 26 28 20 25
41 40 41 41 41 41 42 42 42 44 45 46 45 44 42 43 45 46 44 41 40 39 47 36 36 30 30 31 26 28 27 26 23 25 28 14 19 18 25 30 33 18 31 30 27 22 29
47 47 47 48 48 48 49 49 50 50 50 50 50 49 46 46 44 48 49 45 44 46 51 42 45 39 32 29 28 29 32 33 28 31 33 24 23 22 18 27 33 26 32 38 33 24 37
49 51 52 53 54 55 56 56 56 56 56 56 56 56 56 54 55 50 51 52 52 52 51 47 46 47 43 39 37 38 36 36 35 34 33 25 27 26 23 24 30 35 36 43 44 41 44
52 54 56 58 60 61 62 64 64 63 61 60 59 59 59 61 58 59 56 57 58 56 54 47 44 50 50 46 43 40 41 40 39 39 35 34 33 29 25 27 28 31 41 46 51 49 42
59 60 62 63 64 65 67 69 69 69 69 68 65 66 65 66 65 63 62 63 62 57 59 60 59 58 56 57 52 48 47 44 39 38 40 38 36 28 32 28 31 33 40 38 46 48 46
65 68 69 71 71 73 73 74 75 75 75 75 73 72 69 71 69 68 69 68 64 59 61 62 64 62 61 62 55 51 49 47 48 41 39 39 41 34 33 34 36 39 32 35 46 50 52
72 75 78 80 81 81 82 83 82 80 80 81 80 80 68 68 72 73 72 70 63 61 61 66 66 67 67 67 67 63 57 48 45 46 40 40 43 41 39 44 40 39 41 45 39 46 48
80 83 84 85 86 87 87 88 88 88 88 89 87 86 71 72 71 74 72 68 67 65 66 70 72 73 73 73 73 72 68 62 32 35 44 42 43 50 48 44 40 42 40 42 48 46 49
83 86 87 90 91 92 93 93 93 93 92 89 87 83 62 64 71 64 64 63 65 69 74 77 79 79 74 73 77 76 73 61 47 46 45 35 50 49 51 50 49 47 42 45 44 46 50
87 89 89 90 90 89 87 85 81 78 70 71 69 62 47 48 55 60 63 67 70 75 81 85 85 86 87 82 80 79 79 69 56 57 53 46 48 57 61 56 50 50 45 42 44 51 48
86 83 77 71 70 66 64 63 58 51 45 41 41 41 37 33 40 48 47 47 59 71 68 76 85 85 85 92 89 86 85 80 72 68 67 60 61 57 57 52 54 53 44 42 49 47 49
74 68 64 60 54 50 48 47 39 21 21 21 20 23 26 26 30 33 38 47 39 42 63 65 73 67 78 89 94 90 90 87 82 78 75 71 65 56 54 54 50 55 54 49 44 43 45
62 58 56 50 46 42 39 34 24 17 17 14 17 17 18 19 24 29 33 40 47 40 42 42 47 63 64 77 94 92 92 91 88 79 71 71 68 60 64 58 53 55 64 57 44 39 39
55 52 48 45 42 37 33 28 19 15 17 13 20 22 18 14 21 25 30 37 44 46 52 53 43 49 62 65 75 93 92 94 92 83 69 68 66 61 64 62 62 65 56 54 52 46 42
46 44 42 40 37 34 29 26 19 15 15 16 20 22 21 17 17 21 28 32 30 30 37 45 54 38 43 66 54 68 85 91 94 87 74 67 59 62 57 68 70 65 55 52 49 46 47
47 46 42 38 34 31 27 23 18 16 15 16 18 19 22 21 16 19 23 25 24 19 23 28 28 37 29 35 47 54 63 77 89 91 79 58 52 52 48 67 77 68 58 45 49 48 47
48 44 40 35 31 28 26 22 19 17 17 19 21 22 22 23 17 19 17 20 22 19 21 19 16 32 40 30 37 51 50 61 74 90 77 59 49 43 45 56 71 62 63 45 37 52 50
42 36 34 30 29 27 24 21 18 16 15 17 22 23 22 20 14 18 18 16 18 18 25 20 17 12 30 33 25 42 46 51 54 66 76 61 57 36 40 49 57 45 42 48 46 52 51
34 35 32 30 29 27 24 20 18 16 15 15 13 12 12 11 9 17 19 19 17 18 20 31 19 5 23 30 15 20 42 49 51 61 84 66 57 44 42 41 44 40 45 48 56 58 52

GFSGBSN_500_spd_036.txt.gz
Wind_Speed
12 12 13 12 12 12 12 11 11 11 13 12 11 10 10 10 9 9 9 8 7 6 4 4 4 4 4 7 8 14 18 15 12 12 14 18 18 19 18 14 11 10 11 10 9 17 18
17 18 18 17 16 16 15 15 14 14 13 13 14 14 13 13 12 11 11 11 10 9 6 5 6 5 6 5 8 11 18 19 17 15 17 14 14 19 24 22 16 10 13 11 1 1 8
21 21 22 21 21 20 19 17 17 17 17 18 17 17 16 17 15 14 14 14 12 12 11 8 7 9 8 6 6 10 11 20 19 18 18 18 23 24 22 19 22 18 13 21 19 13 15
17 18 20 20 20 18 16 16 16 17 18 19 19 19 18 19 18 17 17 17 15 13 13 12 9 10 9 7 7 10 8 12 22 22 20 24 28 24 25 22 18 15 15 14 13 20 16
15 16 17 19 18 18 19 19 19 19 19 20 20 20 20 21 20 21 22 20 18 18 18 16 13 12 12 9 9 7 11 9 15 25 25 24 28 27 28 26 25 14 8 12 15 19 19
21 20 20 20 21 21 21 22 22 22 23 23 23 23 23 22 21 21 26 23 21 20 19 20 16 16 16 13 11 9 10 11 13 20 28 28 25 27 28 30 24 17 10 14 14 8 7
28 28 28 28 28 28 29 29 29 28 27 25 25 26 25 26 22 22 27 25 25 25 22 23 19 17 20 17 16 14 14 12 13 13 19 28 29 26 23 22 22 23 17 18 17 14 14
31 31 31 33 33 33 33 34 34 33 33 33 33 31 31 33 32 29 28 27 27 31 25 27 27 18 24 22 18 19 17 16 13 13 15 16 19 25 26 27 24 30 22 24 25 21 16
37 38 38 38 38 38 39 38 37 37 38 37 37 37 36 37 38 37 36 34 35 34 29 19 28 26 25 28 18 18 21 19 17 19 15 12 10 20 28 30 27 28 31 28 29 27 22
41 42 42 43 43 43 43 44 43 42 41 41 41 41 40 40 42 42 40 37 39 38 38 25 30 30 30 31 24 22 19 23 23 22 21 17 16 19 24 30 30 27 28 33 35 31 27
43 45 46 47 47 49 49 50 50 49 48 46 45 44 44 43 43 46 46 44 42 42 45 34 35 31 30 31 26 24 27 30 26 25 27 14 19 19 20 18 29 17 33 36 36 35 34
48 48 48 48 49 50 52 52 54 55 55 54 53 51 49 49 46 46 50 49 46 47 51 42 41 37 31 32 31 32 32 31 31 33 31 24 25 24 20 21 23 24 34 38 41 42 47
50 52 52 53 54 54 54 55 57 58 58 58 58 58 57 55 55 51 51 53 52 51 50 47 49 46 42 41 38 38 36 36 34 34 32 27 29 27 25 23 24 28 37 42 47 50 48
54 55 56 57 58 59 59 60 61 62 63 63 62 63 63 65 61 60 59 58 57 55 55 55 53 52 48 46 44 44 47 45 42 40 34 34 36 28 25 27 24 28 37 45 50 53 46
59 59 58 60 61 61 62 64 67 67 68 68 68 68 68 69 70 67 67 66 64 62 63 61 57 58 58 55 52 50 51 48 43 41 38 38 38 30 33 28 31 29 37 37 46 47 50
64 65 67 69 71 71 74 74 70 68 69 69 69 69 69 72 74 73 74 73 70 68 68 68 65 64 63 63 62 58 57 53 48 44 40 40 43 36 34 35 39 38 30 36 46 51 55
71 73 75 77 78 79 79 79 78 77 76 75 73 71 70 72 74 75 75 74 71 66 71 70 71 70 70 69 69 66 61 59 56 46 37 43 46 39 42 48 42 41 42 41 39 41 45
73 74 76 78 80 81 83 84 85 86 85 84 82 78 70 75 70 72 72 70 73 75 70 76 77 76 75 74 74 74 68 64 62 59 63 57 51 52 48 44 46 45 44 42 44 44 40
76 78 80 81 81 80 79 79 79 82 84 84 80 75 71 67 69 68 70 73 75 78 78 77 80 81 81 79 78 77 75 68 68 68 67 60 63 60 57 54 56 58 52 47 44 41 45
80 80 77 72 67 63 59 58 57 58 58 59 59 49 44 44 53 59 57 64 71 76 82 83 84 87 86 85 84 83 83 78 75 72 73 69 68 69 65 58 55 56 55 54 51 52 47
74 67 59 54 51 47 47 47 47 44 42 41 33 27 20 21 29 38 40 47 56 64 71 77 83 89 91 91 88 92 88 86 82 77 75 76 76 74 71 64 55 57 56 55 56 52 52
61 56 51 49 49 48 46 43 41 38 34 29 21 14 12 10 25 27 29 32 24 43 52 60 72 78 84 91 92 94 97 90 85 80 74 77 80 77 77 74 67 60 60 58 55 52 52
54 49 49 50 46 43 39 36 35 32 28 21 18 14 12 8 12 23 31 35 37 33 34 34 43 61 68 75 88 92 99 99 91 85 80 74 80 79 78 73 65 52 68 65 61 57 53
55 49 47 44 41 38 35 31 30 27 21 19 18 15 17 15 14 16 23 33 38 44 46 39 45 40 41 47 70 78 92 102 99 87 84 78 78 79 78 70 67 69 63 64 62 60 56
47 42 41 39 37 36 34 30 26 22 20 19 20 19 22 19 16 17 20 24 31 37 41 40 40 42 55 48 47 60 73 91 100 95 89 83 73 71 75 68 65 69 66 60 68 63 54
41 40 38 35 36 34 32 30 27 23 20 21 23 21 21 20 15 17 17 21 22 27 29 27 30 36 39 45 39 39 54 64 86 95 91 82 72 64 60 68 62 68 61 63 55 63 59
38 42 39 37 36 34 33 28 25 23 21 19 21 23 23 22 16 19 18 19 21 20 22 25 27 26 24 25 36 30 36 50 62 84 88 86 72 63 45 67 69 68 62 54 50 54 61
41 44 38 39 35 36 36 32 26 22 21 21 22 17 16 15 13 18 20 18 17 18 20 21 18 18 17 13 26 20 32 40 62 63 78 71 70 73 59 58 58 70 75 57 48 53 51
42 43 41 41 43 39 37 33 31 28 24 20 19 15 15 11 8 14 16 16 18 20 16 17 20 23 13 21 27 20 20 32 40 61 57 58 73 77 57 40 62 64 72 61 60 52 53